QPF
0.01 0.02 0.02 0.03 0.05 0.06 0.07 0.07 0.09 0.10 0.09 0.09 0.08 0.08 0.10 0.08 0.08 0.08 0.07 0.07 0.06 0.06 0.06 0.07 0.09 0.07 0.08 0.11 0.11 0.10 0.11 0.10 0.07 0.06 0.05 0.03 0.03 0.03 0.03 0.02 0.02 0.01 0.01
0.02 0.04 0.04 0.04 0.05 0.07 0.08 0.10 0.11 0.11 0.09 0.09 0.09 0.09 0.11 0.10 0.11 0.10 0.09 0.07 0.05 0.06 0.06 0.08 0.12 0.12 0.11 0.11 0.11 0.11 0.10 0.08 0.08 0.08 0.08 0.06 0.05 0.03 0.02 0.02 0.03 0.02 0.02
0.10 0.13 0.10 0.05 0.05 0.06 0.07 0.10 0.13 0.14 0.11 0.09 0.08 0.09 0.12 0.13 0.12 0.11 0.09 0.07 0.06 0.05 0.05 0.05 0.06 0.08 0.09 0.09 0.09 0.09 0.09 0.08 0.07 0.07 0.08 0.08 0.06 0.06 0.04 0.03 0.02 0.02 0.03
0.06 0.08 0.08 0.06 0.05 0.03 0.04 0.08 0.10 0.13 0.13 0.10 0.09 0.09 0.10 0.11 0.10 0.09 0.08 0.07 0.06 0.06 0.06 0.06 0.05 0.05 0.06 0.06 0.06 0.07 0.07 0.08 0.07 0.08 0.08 0.06 0.07 0.08 0.08 0.07 0.04 0.03 0.03
0.04 0.06 0.06 0.06 0.05 0.03 0.06 0.10 0.08 0.09 0.12 0.14 0.09 0.07 0.08 0.09 0.09 0.09 0.09 0.06 0.05 0.05 0.05 0.06 0.06 0.07 0.07 0.05 0.05 0.06 0.06 0.07 0.07 0.07 0.09 0.09 0.08 0.08 0.08 0.09 0.09 0.08 0.05
0.05 0.07 0.08 0.07 0.07 0.05 0.06 0.06 0.05 0.06 0.08 0.12 0.13 0.10 0.09 0.09 0.07 0.07 0.06 0.06 0.05 0.05 0.05 0.05 0.07 0.08 0.07 0.06 0.05 0.05 0.04 0.05 0.06 0.07 0.08 0.09 0.10 0.08 0.07 0.07 0.07 0.07 0.06
0.04 0.05 0.07 0.07 0.06 0.05 0.05 0.04 0.04 0.05 0.06 0.08 0.10 0.09 0.09 0.09 0.06 0.06 0.06 0.06 0.05 0.05 0.05 0.06 0.07 0.08 0.08 0.07 0.07 0.07 0.06 0.06 0.07 0.08 0.09 0.09 0.09 0.08 0.07 0.08 0.07 0.06 0.05
0.03 0.04 0.05 0.06 0.06 0.05 0.04 0.04 0.05 0.05 0.05 0.06 0.08 0.08 0.08 0.07 0.06 0.06 0.06 0.05 0.04 0.04 0.05 0.05 0.05 0.05 0.05 0.06 0.09 0.09 0.09 0.10 0.10 0.09 0.09 0.10 0.09 0.10 0.09 0.09 0.09 0.08 0.07
0.03 0.03 0.04 0.06 0.06 0.05 0.04 0.03 0.05 0.05 0.05 0.06 0.06 0.05 0.06 0.07 0.06 0.06 0.05 0.04 0.03 0.04 0.04 0.04 0.04 0.04 0.05 0.06 0.08 0.08 0.09 0.10 0.09 0.08 0.08 0.09 0.09 0.09 0.07 0.07 0.08 0.08 0.08
0.03 0.02 0.03 0.04 0.06 0.06 0.04 0.03 0.04 0.03 0.04 0.05 0.05 0.03 0.04 0.05 0.06 0.05 0.04 0.03 0.03 0.03 0.03 0.03 0.04 0.04 0.05 0.05 0.07 0.08 0.09 0.10 0.09 0.08 0.08 0.08 0.07 0.07 0.07 0.06 0.06 0.07 0.07
0.03 0.02 0.02 0.02 0.04 0.05 0.06 0.04 0.04 0.04 0.04 0.05 0.06 0.04 0.04 0.05 0.06 0.06 0.04 0.04 0.03 0.02 0.02 0.02 0.03 0.03 0.04 0.06 0.08 0.08 0.09 0.09 0.09 0.08 0.07 0.06 0.05 0.05 0.05 0.05 0.06 0.07 0.07
0.04 0.03 0.02 0.02 0.03 0.05 0.06 0.05 0.05 0.05 0.04 0.05 0.05 0.04 0.04 0.04 0.04 0.03 0.03 0.02 0.02 0.02 0.03 0.02 0.02 0.03 0.04 0.05 0.06 0.06 0.07 0.07 0.06 0.07 0.06 0.05 0.05 0.05 0.05 0.05 0.05 0.05 0.06
0.05 0.04 0.04 0.02 0.03 0.04 0.04 0.04 0.04 0.05 0.04 0.04 0.04 0.04 0.04 0.03 0.03 0.04 0.03 0.03 0.02 0.02 0.02 0.02 0.03 0.03 0.04 0.04 0.03 0.04 0.05 0.06 0.05 0.05 0.05 0.04 0.05 0.05 0.05 0.05 0.05 0.05 0.04
0.03 0.02 0.03 0.03 0.02 0.02 0.04 0.05 0.05 0.04 0.04 0.03 0.03 0.04 0.04 0.04 0.03 0.04 0.04 0.03 0.03 0.03 0.03 0.02 0.03 0.03 0.04 0.04 0.05 0.05 0.05 0.06 0.05 0.05 0.05 0.05 0.05 0.05 0.04 0.04 0.05 0.05 0.06
0.02 0.02 0.02 0.03 0.02 0.03 0.03 0.05 0.05 0.05 0.05 0.04 0.03 0.04 0.04 0.03 0.03 0.04 0.04 0.03 0.04 0.03 0.03 0.04 0.04 0.03 0.04 0.05 0.05 0.06 0.06 0.07 0.06 0.06 0.06 0.06 0.06 0.05 0.04 0.03 0.03 0.04 0.05
0.02 0.02 0.02 0.03 0.02 0.02 0.02 0.03 0.05 0.06 0.07 0.06 0.04 0.04 0.03 0.02 0.02 0.02 0.03 0.04 0.04 0.04 0.05 0.05 0.06 0.06 0.05 0.04 0.04 0.05 0.06 0.06 0.06 0.06 0.06 0.06 0.05 0.05 0.03 0.02 0.01 0.03 0.04
0.01 0.02 0.02 0.02 0.02 0.01 0.01 0.02 0.04 0.08 0.08 0.07 0.04 0.03 0.02 0.01 0.01 0.01 0.02 0.04 0.04 0.03 0.04 0.05 0.06 0.06 0.04 0.04 0.04 0.04 0.05 0.05 0.07 0.07 0.06 0.04 0.03 0.03 0.02 0.01 0.01 0.02 0.03
0.01 0.01 0.02 0.02 0.02 0.02 0.01 0.01 0.03 0.07 0.10 0.07 0.04 0.03 0.02 0.02 0.02 0.02 0.02 0.03 0.04 0.04 0.04 0.04 0.05 0.05 0.03 0.03 0.02 0.02 0.03 0.04 0.05 0.05 0.05 0.05 0.05 0.03 0.02 0.02 0.02 0.02 0.03
0.01 0.01 0.02 0.02 0.03 0.03 0.01 0.01 0.02 0.04 0.06 0.07 0.05 0.03 0.03 0.03 0.02 0.02 0.03 0.04 0.05 0.05 0.05 0.05 0.05 0.04 0.02 0.02 0.02 0.02 0.02 0.03 0.04 0.04 0.04 0.03 0.03 0.02 0.01 0.01 0.02 0.02 0.02
0.02 0.01 0.01 0.02 0.03 0.02 0.02 0.02 0.02 0.03 0.03 0.04 0.04 0.04 0.04 0.05 0.04 0.04 0.04 0.05 0.05 0.05 0.05 0.05 0.04 0.03 0.03 0.01 0.01 0.02 0.02 0.03 0.03 0.03 0.03 0.02 0.01 0.00 0.01 0.01 0.02 0.02 0.03
0.03 0.02 0.01 0.01 0.02 0.02 0.02 0.02 0.02 0.03 0.03 0.03 0.03 0.03 0.04 0.04 0.04 0.04 0.03 0.05 0.05 0.06 0.06 0.05 0.05 0.04 0.03 0.02 0.01 0.01 0.02 0.03 0.02 0.02 0.02 0.02 0.01 0.00 0.01 0.01 0.02 0.04 0.04
0.03 0.03 0.02 0.01 0.01 0.02 0.03 0.02 0.03 0.03 0.03 0.04 0.04 0.04 0.04 0.03 0.03 0.03 0.04 0.04 0.05 0.06 0.07 0.07 0.06 0.04 0.04 0.03 0.02 0.02 0.02 0.02 0.03 0.03 0.03 0.02 0.01 0.01 0.01 0.01 0.01 0.02 0.02
0.02 0.02 0.02 0.02 0.02 0.03 0.04 0.04 0.04 0.04 0.04 0.05 0.05 0.05 0.04 0.05 0.05 0.04 0.04 0.04 0.05 0.05 0.05 0.05 0.05 0.05 0.04 0.03 0.02 0.01 0.01 0.01 0.02 0.02 0.01 0.01 0.01 0.01 0.01 0.01 0.02 0.01 0.01
0.02 0.02 0.04 0.02 0.02 0.03 0.06 0.06 0.06 0.05 0.04 0.04 0.04 0.04 0.03 0.04 0.04 0.04 0.03 0.03 0.04 0.05 0.05 0.04 0.05 0.05 0.05 0.04 0.03 0.02 0.01 0.01 0.01 0.01 0.01 0.01 0.00 0.01 0.01 0.01 0.02 0.02 0.01
0.02 0.03 0.05 0.04 0.03 0.03 0.04 0.05 0.05 0.04 0.04 0.04 0.04 0.03 0.03 0.03 0.04 0.04 0.03 0.02 0.03 0.04 0.04 0.04 0.05 0.05 0.04 0.03 0.02 0.01 0.01 0.01 0.01 0.00 0.01 0.01 0.01 0.01 0.01 0.01 0.01 0.02 0.03
0.03 0.03 0.04 0.04 0.03 0.03 0.03 0.03 0.04 0.04 0.04 0.05 0.05 0.04 0.04 0.04 0.03 0.03 0.03 0.02 0.02 0.01 0.02 0.02 0.03 0.03 0.02 0.02 0.01 0.01 0.01 0.01 0.00 0.00 0.01 0.01 0.01 0.01 0.01 0.01 0.01 0.02 0.02
MSLP
1008.04 1008.31 1008.43 1008.44 1008.37 1008.27 1008.19 1008.18 1008.28 1008.48 1008.78 1009.13 1009.50 1009.85 1010.16 1010.40 1010.59 1010.74 1010.89 1011.05 1011.24 1011.46 1011.70 1011.94 1012.18 1012.39 1012.58 1012.76 1012.95 1013.16 1013.43 1013.75 1014.13 1014.54 1014.96 1015.35 1015.68 1015.92 1016.07 1016.12 1016.11 1016.06 1015.99
1008.36 1008.75 1008.95 1008.98 1008.88 1008.72 1008.57 1008.50 1008.56 1008.75 1009.07 1009.46 1009.87 1010.26 1010.58 1010.82 1010.99 1011.12 1011.24 1011.38 1011.57 1011.82 1012.10 1012.40 1012.70 1012.95 1013.16 1013.33 1013.48 1013.63 1013.81 1014.05 1014.34 1014.69 1015.05 1015.40 1015.71 1015.94 1016.09 1016.15 1016.16 1016.14 1016.10
1008.61 1009.15 1009.46 1009.55 1009.46 1009.27 1009.08 1008.95 1008.97 1009.14 1009.45 1009.86 1010.30 1010.71 1011.06 1011.31 1011.48 1011.61 1011.73 1011.88 1012.10 1012.39 1012.73 1013.09 1013.43 1013.73 1013.95 1014.10 1014.20 1014.28 1014.36 1014.49 1014.68 1014.92 1015.19 1015.47 1015.72 1015.92 1016.05 1016.12 1016.14 1016.13 1016.13
1008.74 1009.44 1009.89 1010.07 1010.04 1009.86 1009.65 1009.49 1009.48 1009.62 1009.93 1010.34 1010.80 1011.24 1011.61 1011.88 1012.08 1012.22 1012.37 1012.55 1012.81 1013.14 1013.53 1013.95 1014.33 1014.65 1014.88 1015.01 1015.06 1015.06 1015.05 1015.08 1015.15 1015.29 1015.47 1015.67 1015.85 1016.00 1016.10 1016.14 1016.15 1016.15 1016.17
1008.75 1009.61 1010.20 1010.50 1010.54 1010.41 1010.21 1010.06 1010.03 1010.16 1010.46 1010.88 1011.35 1011.81 1012.21 1012.53 1012.76 1012.94 1013.12 1013.34 1013.63 1014.00 1014.43 1014.87 1015.28 1015.62 1015.84 1015.95 1015.96 1015.90 1015.82 1015.77 1015.76 1015.82 1015.92 1016.05 1016.17 1016.27 1016.32 1016.33 1016.31 1016.29 1016.30
1008.65 1009.64 1010.37 1010.79 1010.93 1010.87 1010.73 1010.59 1010.58 1010.72 1011.02 1011.44 1011.93 1012.42 1012.85 1013.20 1013.47 1013.69 1013.90 1014.16 1014.47 1014.86 1015.30 1015.76 1016.17 1016.50 1016.72 1016.81 1016.79 1016.71 1016.59 1016.50 1016.45 1016.46 1016.51 1016.60 1016.68 1016.73 1016.74 1016.71 1016.65 1016.59 1016.55
1008.48 1009.58 1010.41 1010.95 1011.19 1011.23 1011.15 1011.07 1011.09 1011.25 1011.56 1012.00 1012.51 1013.02 1013.48 1013.86 1014.16 1014.41 1014.64 1014.91 1015.23 1015.62 1016.05 1016.49 1016.89 1017.21 1017.41 1017.49 1017.47 1017.38 1017.27 1017.18 1017.13 1017.13 1017.18 1017.26 1017.32 1017.36 1017.33 1017.26 1017.15 1017.03 1016.92
1008.29 1009.46 1010.38 1011.01 1011.35 1011.48 1011.48 1011.47 1011.54 1011.74 1012.08 1012.54 1013.06 1013.58 1014.06 1014.45 1014.77 1015.03 1015.28 1015.54 1015.85 1016.21 1016.61 1017.02 1017.39 1017.68 1017.87 1017.95 1017.94 1017.87 1017.79 1017.73 1017.71 1017.75 1017.83 1017.92 1018.00 1018.03 1018.00 1017.89 1017.73 1017.55 1017.37
1008.13 1009.34 1010.31 1011.01 1011.44 1011.65 1011.75 1011.81 1011.94 1012.19 1012.56 1013.04 1013.57 1014.10 1014.58 1014.97 1015.29 1015.55 1015.78 1016.02 1016.30 1016.62 1016.98 1017.35 1017.68 1017.95 1018.12 1018.21 1018.22 1018.18 1018.13 1018.12 1018.15 1018.24 1018.36 1018.50 1018.60 1018.65 1018.61 1018.49 1018.30 1018.07 1017.82
1008.04 1009.25 1010.25 1011.00 1011.49 1011.79 1011.97 1012.12 1012.32 1012.62 1013.02 1013.52 1014.05 1014.57 1015.04 1015.43 1015.73 1015.96 1016.17 1016.38 1016.62 1016.91 1017.22 1017.54 1017.84 1018.08 1018.25 1018.33 1018.36 1018.35 1018.34 1018.36 1018.44 1018.57 1018.74 1018.90 1019.04 1019.11 1019.09 1018.97 1018.77 1018.51 1018.21
1007.99 1009.20 1010.21 1010.99 1011.54 1011.91 1012.16 1012.40 1012.67 1013.02 1013.47 1013.98 1014.52 1015.03 1015.48 1015.84 1016.11 1016.32 1016.50 1016.68 1016.89 1017.14 1017.42 1017.71 1017.98 1018.20 1018.35 1018.44 1018.47 1018.48 1018.48 1018.53 1018.62 1018.77 1018.95 1019.13 1019.29 1019.38 1019.38 1019.28 1019.08 1018.82 1018.51
1007.97 1009.16 1010.17 1010.97 1011.57 1012.00 1012.34 1012.65 1013.00 1013.42 1013.90 1014.44 1014.97 1015.48 1015.91 1016.24 1016.50 1016.68 1016.84 1017.00 1017.18 1017.41 1017.67 1017.94 1018.20 1018.41 1018.56 1018.64 1018.67 1018.67 1018.66 1018.69 1018.77 1018.90 1019.06 1019.24 1019.39 1019.49 1019.50 1019.42 1019.25 1019.00 1018.70
1007.90 1009.08 1010.09 1010.91 1011.55 1012.05 1012.46 1012.86 1013.29 1013.77 1014.31 1014.87 1015.42 1015.91 1016.33 1016.66 1016.89 1017.07 1017.21 1017.36 1017.55 1017.77 1018.03 1018.30 1018.56 1018.77 1018.91 1018.99 1019.00 1018.98 1018.94 1018.93 1018.96 1019.03 1019.15 1019.29 1019.41 1019.49 1019.51 1019.45 1019.31 1019.09 1018.82
1007.72 1008.90 1009.93 1010.77 1011.46 1012.02 1012.52 1013.00 1013.51 1014.06 1014.65 1015.25 1015.82 1016.33 1016.75 1017.07 1017.30 1017.48 1017.63 1017.79 1017.98 1018.22 1018.49 1018.77 1019.04 1019.25 1019.40 1019.46 1019.46 1019.41 1019.33 1019.26 1019.22 1019.23 1019.27 1019.35 1019.43 1019.48 1019.49 1019.44 1019.32 1019.13 1018.90
1007.41 1008.60 1009.65 1010.53 1011.27 1011.90 1012.48 1013.04 1013.63 1014.25 1014.90 1015.54 1016.14 1016.67 1017.11 1017.44 1017.69 1017.88 1018.05 1018.23 1018.43 1018.69 1018.97 1019.27 1019.55 1019.78 1019.93 1019.99 1019.98 1019.89 1019.77 1019.65 1019.55 1019.48 1019.46 1019.47 1019.50 1019.51 1019.50 1019.45 1019.33 1019.17 1018.96
1006.97 1008.18 1009.25 1010.18 1010.98 1011.68 1012.33 1012.98 1013.64 1014.33 1015.03 1015.72 1016.36 1016.92 1017.38 1017.74 1018.01 1018.22 1018.41 1018.60 1018.83 1019.09 1019.39 1019.70 1019.99 1020.23 1020.38 1020.45 1020.43 1020.34 1020.20 1020.04 1019.89 1019.77 1019.70 1019.65 1019.63 1019.61 1019.58 1019.50 1019.39 1019.22 1019.01
1006.44 1007.68 1008.79 1009.77 1010.62 1011.38 1012.11 1012.82 1013.54 1014.29 1015.04 1015.77 1016.44 1017.04 1017.53 1017.92 1018.21 1018.44 1018.65 1018.85 1019.08 1019.35 1019.65 1019.96 1020.25 1020.49 1020.66 1020.74 1020.73 1020.64 1020.50 1020.34 1020.18 1020.04 1019.93 1019.86 1019.81 1019.77 1019.70 1019.61 1019.47 1019.28 1019.04
1005.89 1007.17 1008.32 1009.34 1010.25 1011.07 1011.84 1012.61 1013.38 1014.17 1014.95 1015.71 1016.42 1017.04 1017.55 1017.96 1018.27 1018.52 1018.73 1018.93 1019.16 1019.41 1019.70 1019.99 1020.27 1020.51 1020.69 1020.78 1020.79 1020.74 1020.62 1020.48 1020.34 1020.22 1020.12 1020.05 1019.99 1019.93 1019.85 1019.73 1019.55 1019.33 1019.04
1005.40 1006.72 1007.91 1008.98 1009.93 1010.79 1011.60 1012.40 1013.20 1014.01 1014.81 1015.59 1016.31 1016.94 1017.47 1017.89 1018.21 1018.46 1018.67 1018.86 1019.06 1019.29 1019.55 1019.82 1020.08 1020.31 1020.49 1020.61 1020.65 1020.63 1020.57 1020.47 1020.37 1020.28 1020.21 1020.16 1020.11 1020.05 1019.95 1019.81 1019.60 1019.33 1018.99
1005.03 1006.38 1007.61 1008.71 1009.70 1010.59 1011.43 1012.24 1013.05 1013.86 1014.67 1015.44 1016.16 1016.80 1017.33 1017.75 1018.07 1018.32 1018.51 1018.68 1018.86 1019.06 1019.28 1019.52 1019.77 1019.99 1020.18 1020.31 1020.39 1020.41 1020.39 1020.34 1020.29 1020.24 1020.20 1020.17 1020.14 1020.08 1019.98 1019.82 1019.59 1019.27 1018.89
1004.78 1006.16 1007.42 1008.56 1009.57 1010.48 1011.33 1012.15 1012.96 1013.76 1014.56 1015.32 1016.03 1016.65 1017.17 1017.59 1017.90 1018.13 1018.31 1018.46 1018.62 1018.79 1018.99 1019.21 1019.45 1019.67 1019.86 1020.02 1020.12 1020.18 1020.19 1020.18 1020.16 1020.14 1020.12 1020.10 1020.07 1020.02 1019.91 1019.74 1019.49 1019.15 1018.74
1004.65 1006.05 1007.34 1008.49 1009.52 1010.45 1011.30 1012.12 1012.93 1013.72 1014.50 1015.24 1015.92 1016.53 1017.03 1017.43 1017.73 1017.95 1018.12 1018.26 1018.40 1018.57 1018.77 1018.99 1019.22 1019.46 1019.67 1019.84 1019.96 1020.04 1020.07 1020.07 1020.05 1020.03 1020.00 1019.97 1019.94 1019.87 1019.76 1019.58 1019.33 1018.99 1018.56
1004.60 1006.01 1007.31 1008.47 1009.51 1010.45 1011.31 1012.13 1012.93 1013.71 1014.47 1015.19 1015.85 1016.43 1016.91 1017.29 1017.58 1017.79 1017.95 1018.09 1018.25 1018.43 1018.64 1018.89 1019.15 1019.41 1019.65 1019.84 1019.98 1020.06 1020.08 1020.06 1020.02 1019.95 1019.89 1019.82 1019.74 1019.65 1019.53 1019.35 1019.11 1018.79 1018.39
1004.60 1006.01 1007.29 1008.45 1009.49 1010.43 1011.30 1012.12 1012.91 1013.69 1014.43 1015.14 1015.78 1016.33 1016.79 1017.15 1017.42 1017.62 1017.79 1017.95 1018.12 1018.34 1018.60 1018.89 1019.20 1019.51 1019.79 1020.01 1020.16 1020.23 1020.23 1020.17 1020.06 1019.93 1019.79 1019.65 1019.52 1019.40 1019.26 1019.08 1018.86 1018.58 1018.23
1004.64 1006.01 1007.27 1008.40 1009.42 1010.35 1011.22 1012.04 1012.84 1013.62 1014.36 1015.04 1015.67 1016.20 1016.63 1016.97 1017.22 1017.42 1017.59 1017.77 1017.98 1018.24 1018.56 1018.92 1019.30 1019.67 1020.00 1020.25 1020.42 1020.48 1020.44 1020.32 1020.14 1019.92 1019.70 1019.48 1019.29 1019.12 1018.96 1018.80 1018.61 1018.39 1018.11
1004.71 1006.03 1007.22 1008.31 1009.29 1010.20 1011.05 1011.88 1012.68 1013.45 1014.19 1014.87 1015.48 1015.99 1016.39 1016.71 1016.94 1017.13 1017.30 1017.50 1017.75 1018.06 1018.43 1018.86 1019.32 1019.75 1020.14 1020.44 1020.62 1020.68 1020.61 1020.44 1020.19 1019.89 1019.58 1019.29 1019.04 1018.83 1018.66 1018.52 1018.38 1018.21 1018.01
Thickness
5768 5767 5764 5762 5758 5753 5748 5744 5741 5739 5736 5733 5730 5728 5727 5728 5728 5727 5726 5724 5723 5722 5721 5720 5718 5717 5715 5713 5712 5712 5710 5709 5710 5706 5704 5706 5707 5705 5703 5702 5700 5699 5698
5763 5760 5757 5754 5751 5747 5743 5740 5737 5734 5732 5730 5728 5727 5725 5725 5725 5724 5722 5721 5719 5718 5718 5716 5715 5714 5712 5709 5708 5707 5704 5704 5705 5701 5695 5692 5693 5697 5700 5698 5695 5695 5694
5757 5754 5751 5748 5746 5743 5739 5737 5734 5731 5729 5728 5727 5725 5721 5720 5720 5719 5718 5718 5717 5715 5714 5712 5711 5710 5709 5706 5704 5703 5701 5698 5700 5699 5693 5686 5683 5687 5691 5692 5692 5691 5690
5759 5753 5748 5745 5742 5740 5737 5733 5730 5728 5727 5725 5723 5720 5716 5714 5715 5716 5716 5716 5715 5713 5711 5710 5708 5707 5705 5704 5702 5701 5699 5696 5693 5694 5694 5691 5688 5682 5680 5684 5687 5687 5685
5759 5752 5749 5745 5742 5739 5735 5730 5727 5725 5723 5721 5720 5716 5715 5714 5714 5714 5713 5713 5712 5711 5709 5707 5706 5704 5703 5701 5699 5697 5696 5694 5691 5690 5689 5688 5686 5684 5677 5675 5678 5680 5682
5759 5753 5749 5744 5740 5737 5733 5729 5724 5722 5721 5718 5717 5715 5712 5711 5710 5709 5709 5709 5708 5708 5706 5705 5703 5701 5700 5699 5697 5694 5693 5690 5688 5687 5685 5683 5680 5679 5677 5674 5673 5673 5676
5755 5750 5745 5740 5736 5733 5730 5726 5722 5719 5718 5716 5714 5712 5709 5708 5706 5706 5706 5705 5705 5704 5703 5703 5700 5698 5697 5695 5693 5691 5689 5687 5685 5683 5682 5681 5681 5680 5677 5673 5671 5671 5673
5752 5746 5742 5738 5734 5731 5728 5724 5720 5716 5715 5713 5711 5709 5708 5706 5705 5704 5703 5703 5702 5702 5702 5700 5698 5696 5694 5692 5690 5688 5686 5684 5683 5681 5679 5678 5678 5678 5676 5672 5668 5665 5666
5747 5743 5739 5735 5732 5729 5726 5723 5719 5714 5712 5710 5708 5706 5705 5704 5702 5702 5701 5700 5699 5699 5698 5696 5694 5692 5691 5689 5686 5684 5683 5681 5679 5677 5675 5674 5674 5674 5674 5672 5668 5661 5657
5743 5740 5736 5732 5729 5727 5723 5721 5717 5713 5711 5708 5706 5704 5703 5701 5700 5698 5697 5696 5695 5694 5693 5691 5690 5688 5687 5685 5683 5681 5680 5677 5675 5673 5671 5669 5670 5669 5669 5668 5666 5663 5657
5739 5737 5733 5730 5727 5724 5720 5716 5713 5710 5707 5705 5703 5701 5699 5698 5696 5694 5693 5692 5691 5690 5688 5687 5685 5684 5682 5681 5679 5677 5676 5673 5670 5668 5667 5665 5665 5663 5663 5662 5661 5659 5656
5737 5734 5731 5727 5723 5720 5717 5713 5710 5707 5704 5702 5700 5697 5696 5694 5692 5690 5689 5688 5687 5685 5684 5683 5681 5680 5678 5677 5675 5672 5671 5668 5665 5664 5662 5660 5660 5658 5656 5655 5654 5653 5652
5730 5728 5726 5722 5719 5716 5713 5710 5707 5704 5702 5699 5696 5694 5692 5690 5687 5686 5685 5684 5683 5681 5680 5678 5677 5675 5674 5673 5671 5669 5666 5664 5662 5660 5658 5657 5654 5652 5651 5649 5648 5647 5648
5723 5722 5720 5718 5715 5712 5709 5706 5703 5701 5699 5696 5693 5690 5688 5686 5684 5683 5682 5680 5679 5677 5676 5675 5673 5671 5670 5669 5667 5665 5662 5660 5659 5657 5654 5653 5651 5648 5646 5645 5644 5643 5641
5717 5716 5713 5712 5710 5707 5705 5703 5700 5698 5695 5691 5688 5686 5685 5683 5681 5679 5678 5676 5675 5674 5673 5671 5669 5668 5666 5664 5661 5659 5657 5655 5653 5652 5650 5649 5648 5645 5642 5641 5639 5638 5636
5713 5711 5709 5706 5704 5702 5701 5698 5696 5694 5691 5686 5684 5682 5681 5679 5677 5675 5674 5672 5671 5670 5669 5667 5665 5663 5662 5659 5656 5654 5652 5651 5649 5647 5646 5645 5643 5642 5639 5637 5636 5635 5632
5709 5706 5704 5701 5699 5698 5696 5693 5691 5689 5685 5681 5679 5678 5677 5675 5674 5673 5670 5668 5667 5666 5664 5663 5661 5659 5656 5653 5651 5648 5647 5646 5645 5644 5642 5642 5641 5638 5635 5633 5632 5631 5630
5703 5701 5699 5697 5695 5693 5691 5689 5687 5683 5679 5676 5675 5674 5672 5670 5669 5668 5666 5664 5663 5662 5660 5659 5658 5655 5651 5648 5646 5644 5643 5642 5641 5640 5639 5637 5635 5633 5631 5630 5628 5627 5626
5698 5695 5694 5692 5689 5686 5685 5682 5679 5677 5674 5672 5670 5669 5668 5666 5665 5663 5662 5660 5659 5658 5657 5656 5654 5651 5647 5643 5641 5639 5639 5638 5637 5637 5635 5633 5631 5629 5627 5625 5624 5623 5621
5692 5689 5687 5685 5681 5680 5678 5674 5672 5670 5668 5667 5666 5665 5664 5662 5660 5659 5658 5657 5655 5654 5654 5653 5651 5649 5644 5640 5638 5635 5636 5635 5634 5633 5632 5630 5628 5625 5623 5621 5619 5617 5617
5685 5682 5679 5676 5674 5673 5671 5667 5665 5664 5664 5664 5662 5661 5659 5658 5657 5655 5654 5653 5651 5650 5650 5648 5647 5645 5642 5638 5635 5632 5632 5632 5631 5631 5630 5628 5626 5623 5620 5617 5616 5615 5613
5676 5674 5671 5669 5669 5667 5664 5661 5659 5660 5660 5659 5657 5656 5655 5654 5654 5651 5650 5649 5647 5645 5644 5643 5642 5642 5640 5637 5633 5630 5628 5628 5627 5627 5627 5625 5622 5620 5617 5615 5614 5612 5609
5669 5667 5665 5663 5662 5661 5659 5655 5655 5655 5654 5652 5651 5650 5650 5649 5648 5647 5645 5643 5642 5641 5641 5639 5638 5638 5637 5634 5630 5627 5625 5624 5623 5624 5623 5620 5617 5616 5614 5613 5611 5608 5606
5663 5661 5658 5656 5655 5655 5654 5652 5651 5650 5648 5646 5645 5645 5644 5644 5643 5642 5642 5640 5639 5638 5638 5637 5637 5636 5634 5631 5627 5624 5622 5620 5619 5618 5617 5615 5614 5612 5612 5611 5609 5607 5606
5657 5655 5653 5651 5650 5651 5650 5649 5647 5644 5642 5640 5640 5640 5640 5640 5639 5639 5638 5638 5637 5636 5635 5634 5635 5633 5630 5628 5625 5622 5621 5619 5617 5614 5613 5613 5612 5611 5611 5610 5609 5608 5606
5651 5649 5648 5647 5646 5646 5645 5644 5643 5641 5638 5635 5635 5636 5636 5637 5637 5636 5634 5634 5633 5632 5632 5631 5630 5630 5628 5624 5621 5618 5617 5614 5612 5610 5611 5611 5611 5610 5610 5610 5608 5607 5604